Home   Weather   Tunis   Past weeks

Flag for Tunisia Past Weather in Tunis, Tunisia — Yesterday and Last 2 Weeks

Now
61 °F

Passing clouds.


Feels Like: 61 °F
Forecast: 58 / 65 °F
Wind: 6 mph from Southeast

Location: Tunis-Carthage

Current Time: Dec 4, 2016 at 9:17:56 pm

Latest Report: Dec 4, 2016 at 8:00 pm


Visibility: N/A

Pressure: 30.09 "Hg

Humidity: 72%

Dew Point: 52 °F

Location of TunisLocation

Past Weather in Tunis — Graph

°F

Tunis Temperature Yesterday

Maximum temperature yesterday: 61 °F (at 1:30 pm)
Minimum temperature yesterday: 43 °F (at 4:00 am)
Average temperature yesterday: 52 °F

High & Low Weather Summary for the Past Weeks

 TemperatureHumidityPressure
High75 °F (Nov 23, 1:00 pm)100% (Nov 19, 11:00 pm)30.42 "Hg (Nov 19, 11:00 pm)
Low43 °F (Dec 2, 4:00 am)46% (Nov 27, 2:30 pm)29.77 "Hg (Nov 28, 3:30 am)
Average58 °F78%30.02 "Hg
* Reported Nov 19 8:00 pm — Dec 4 8:00 pm, Tunis, Weather by CustomWeather, © 2016

Note: Actual official high and low records may vary slightly from our data, if they occured in-between our weather recording intervals... More about our weather records

Advertising

Tunis Weather History for the Previous 24 Hours

Scroll right to see more
 ConditionsComfort  
Time TempWeatherWind HumidityBarometerVisibility
8:00 pm
Sun, Dec 4
61 °FPassing clouds.6 mph72%30.09 "HgN/A
7:30 pm61 °FPassing clouds.6 mph72%30.07 "HgN/A
7:00 pm59 °FPassing clouds.3 mph77%30.07 "HgN/A
6:30 pm59 °FPassing clouds.3 mph72%30.07 "HgN/A
6:00 pm61 °FPassing clouds.7 mph72%30.07 "HgN/A
5:30 pm63 °FPassing clouds.8 mph64%30.07 "HgN/A
5:00 pm63 °FPassing clouds.7 mph64%30.04 "HgN/A
4:30 pm64 °FPassing clouds.6 mph64%30.04 "HgN/A
4:00 pm64 °FPassing clouds.8 mph64%30.04 "HgN/A
3:30 pm66 °FPassing clouds.8 mph60%30.04 "HgN/A
3:00 pm66 °FPassing clouds.9 mph60%30.04 "HgN/A
2:30 pm66 °FPassing clouds.6 mph60%30.04 "HgN/A
2:00 pm68 °FPassing clouds.6 mph56%30.07 "HgN/A
1:30 pm66 °FPassing clouds.6 mph60%30.07 "HgN/A
1:00 pm64 °FPassing clouds.5 mph60%30.07 "HgN/A
12:30 pm64 °FPassing clouds.5 mph60%30.07 "HgN/A
12:00 pm63 °FPassing clouds.3 mph64%30.09 "HgN/A
11:30 am63 °FPassing clouds.2 mph59%30.09 "HgN/A
11:00 am61 °FPassing clouds.3 mph68%30.09 "HgN/A
10:30 am59 °FPassing clouds.5 mph68%30.09 "HgN/A
10:00 am57 °FPassing clouds.5 mph72%30.09 "HgN/A
9:30 am55 °FPassing clouds.3 mph77%30.09 "HgN/A
9:00 am52 °FPassing clouds.5 mph88%30.09 "HgN/A
8:30 am48 °FPassing clouds.3 mph100%30.09 "HgN/A
8:00 am46 °FPassing clouds.2 mph100%30.07 "HgN/A
7:30 am45 °FPassing clouds.1 mph100%30.07 "Hg4 mi
7:00 am45 °FPassing clouds.1 mph100%30.07 "Hg4 mi
6:30 am45 °FPassing clouds.No wind93%30.07 "Hg5 mi
6:00 am43 °FPassing clouds.1 mph100%30.04 "Hg5 mi
5:30 am45 °FPassing clouds.1 mph100%30.04 "Hg5 mi
5:00 am46 °FPassing clouds.2 mph100%30.04 "Hg5 mi
4:30 am45 °FPassing clouds.1 mph100%30.04 "Hg5 mi
4:00 am45 °FPassing clouds.3 mph100%30.04 "Hg5 mi
3:30 am45 °FPassing clouds.No wind100%30.04 "Hg5 mi
3:00 am45 °FPassing clouds.No wind100%30.04 "Hg5 mi
2:30 am46 °FPassing clouds.2 mph93%30.04 "Hg5 mi
2:00 am46 °FPassing clouds.2 mph100%30.04 "Hg5 mi
1:30 am46 °FPassing clouds.No wind100%30.04 "Hg5 mi
1:00 am48 °FPassing clouds.No wind94%30.04 "Hg5 mi
12:00 am48 °FPassing clouds.No wind94%30.04 "HgN/A
11:30 pm
Sat, Dec 3
48 °FPassing clouds.1 mph94%30.04 "HgN/A
11:00 pm48 °FPassing clouds.No wind94%30.04 "HgN/A
10:30 pm48 °FPassing clouds.No wind94%30.04 "HgN/A
10:00 pm50 °FPassing clouds.No wind88%30.04 "HgN/A
9:30 pm52 °FPassing clouds.No wind88%30.04 "HgN/A
9:00 pm55 °FPassing clouds.6 mph77%30.04 "HgN/A
Weather by CustomWeather, © 2016

See weather overviewHow to use our weather pages